Location: Grand Canyon Star Party (South Rim)
(36.0641°N, 112.1172°W)
Time: 04:36:28
(UTC-07:00)

Hubble Space Telescope - Visible Passes

Search period start: 20 November 2017 00:00
Search period end: 30 November 2017 00:00
Orbit: 537 x 541 km, 28.5° (Epoch: 19 November)

Date Brightness Start Highest point End Pass type
(mag) Time Alt. Az. Time Alt. Az. Time Alt. Az.
20 Nov 2.3 05:20:44 24° SSW 05:21:35 26° S 05:25:03 10° ESE visible
21 Nov 2.2 05:11:14 27° S 05:11:18 27° S 05:14:50 10° ESE visible
22 Nov 2.4 05:01:41 27° SSE 05:01:41 27° SSE 05:04:34 10° ESE visible
22 Nov 2.7 06:38:35 10° WSW 06:41:45 21° SSW 06:44:55 10° SE visible
23 Nov 2.8 04:52:07 23° SSE 04:52:07 23° SSE 04:54:17 10° ESE visible
23 Nov 2.8 06:28:31 10° WSW 06:31:27 19° SSW 06:34:23 10° SSE visible
24 Nov 3.2 04:42:32 18° SE 04:42:32 18° SE 04:43:58 10° SE visible
24 Nov 2.9 06:18:30 10° WSW 06:21:08 16° SSW 06:23:46 10° SSE visible
25 Nov 3.6 04:32:57 13° SE 04:32:57 13° SE 04:33:37 10° SE visible
25 Nov 3.1 06:08:39 10° SW 06:10:49 14° SSW 06:12:59 10° SSE visible
26 Nov 3.2 05:59:04 10° SW 06:00:28 11° SSW 06:01:53 10° S visible
